Overview Statistics Trail Chart Weather Telemetry Raw packets
 

This is the latest recevied weather packets stored in our database for station/object PA3FNT-13. If no packets are shown the sender has not sent any weather packets the latest 10 day(s).

<< 1 2 3 4 5 6 >>
Time Temp. Humidity Pressure Rain* Wind** Luminosity Snow
1788466743 27.22° C 49% 1016 hPa - - - -
1788465843 27.22° C 48% 1016 hPa - - - -
1788464942 27.22° C 49% 1016.3 hPa - - - -
1788464042 27.22° C 48% 1016.5 hPa - - - -
1788463142 27.22° C 47% 1016.4 hPa - - - -
1788462242 27.78° C 46% 1016.2 hPa - - - -
1788461342 27.78° C 45% 1016.1 hPa - - - -
1788460442 27.78° C 45% 1016 hPa - - - -
1788459541 28.89° C 43% 1016.4 hPa - - - -
1788458641 29.44° C 43% 1016.2 hPa - - - -
1788457741 28.33° C 44% 1016.3 hPa - - - -
1788456841 27.78° C 45% 1016.7 hPa - - - -
1788455941 27.78° C 45% 1016.3 hPa - - - -
1788455041 27.78° C 45% 1016.3 hPa - - - -
1788454140 27.78° C 45% 1016.2 hPa - - - -
1788453240 27.78° C 45% 1016.2 hPa - - - -
1788452340 27.78° C 45% 1016.4 hPa - - - -
1788451440 27.78° C 45% 1016.3 hPa - - - -
1788450540 27.78° C 45% 1016.3 hPa - - - -
1788449640 27.78° C 45% 1016.4 hPa - - - -
1788448739 27.78° C 43% 1016.4 hPa - - - -
1788447839 28.33° C 43% 1016.2 hPa - - - -
1788446939 27.78° C 44% 1016.1 hPa - - - -
1788446039 27.78° C 44% 1016.2 hPa - - - -
1788445139 27.78° C 44% 1016.2 hPa - - - -

* Rain since midnight (hover to see other rain measurements)
** Current wind speed in m/s (hover to see current wind gust speed)